Location: Newark
(46.7000°N, 60.6000°W)
Time: 04:32:22
(UTC+00:00)

A-11 Canister half - Pass Details

Date: 02 November 2020
Orbit: 1525 x 1683 km, 47.3° (Epoch: 23 November)

Event Time Altitude Azimuth Distance (km) Brightness Sun altitude
Rises 22:35:28 0° 290° (WNW) 4,725 12.8 -19.4°
Reaches altitude 10° 22:38:36 10° 287° (WNW) 3,725 12.1 -19.9°
Maximum altitude 22:47:40 58° 212° (SSW) 1,744 9.4 -21.5°
Enters shadow 22:54:47 18° 140° (SE) 3,114 10.2 -22.7°
Drops below altitude 10° 22:56:40 10° 136° (SE) 3,689 - -23.0°
Sets 22:59:46 0° 132° (SE) 4,677 - -23.5°
